< < Back
Terminal Aerodrome Forecast


Current Version              Previous Versions:   1  2  3  4  5  6  7  8  9  

Terminal Aerodrome Forecast

587
FTUS42 KGSP 010500
TAFCLT
TAF
KCLT 010538Z 0106/0206 00000KT P6SM SKC
      TEMPO 0109/0113 3SM BR
     FM011300 01003KT P6SM FEW250
     FM011700 19004KT P6SM FEW050=

Latest METAR

194
SAUS70 KWBC 011400 RRG
MTRCLT
METAR KCLT 011352Z 35003KT 9SM CLR 21/17 A3002 RMK AO2 SLP160
T02110172


USA.gov is the U.S. government's official web portal to all federal, state and local government web resources and services.